EW7948 Weather Reports


Display with metric or nautical units.
time (UTC)temp
F
wind
direction
speed
MPH
gust
MPH
rain 1hr
in
rain 24hr
in
rain mn
in
humidity
%
barometer
mb
20260503231543 81 146 6.0 15.0 0.00 0.00 0.00 11 1002.1
20260503230037 82 142 2.0 12.0 0.00 0.00 0.00 11 1002.4
20260503224540 84 184 7.0 11.0 0.00 0.00 0.00 11 1002.4
20260503223034 84 197 4.0 8.0 0.00 0.00 0.00 11 1002.6
20260503221535 83 138 4.0 11.0 0.00 0.00 0.00 9 1003.0
20260503220029 83 219 3.0 11.0 0.00 0.00 0.00 11 1003.4
20260503214532 80 150 4.0 13.0 0.00 0.00 0.00 11 1003.9
20260503213030 83 153 5.0 10.0 0.00 0.00 0.00 11 1004.3
20260503211523 84 287 1.0 15.0 0.00 0.00 0.00 9 1004.5
20260503210038 84 223 5.0 10.0 0.00 0.00 0.00 10 1005.1
20260503204517 82 5 4.0 8.0 0.00 0.00 0.00 11 1005.3
20260503203015 82 186 5.0 9.0 0.00 0.00 0.00 11 1005.7
20260503201511 83 207 4.0 11.0 0.00 0.00 0.00 12 1006.0
20260503200007 82 198 4.0 7.0 0.00 0.00 0.00 12 1006.3
20260503194506 78 30 1.0 8.0 0.00 0.00 0.00 13 1006.7
20260503193004 81 132 3.0 10.0 0.00 0.00 0.00 12 1007.0
20260503191502 81 172 2.0 10.0 0.00 0.00 0.00 12 1007.4
20260503190103 79 202 5.0 9.0 0.00 0.00 0.00 13 1007.7
20260503184556 78 225 1.0 4.0 0.00 0.00 0.00 13 1008.1
20260503183101 78 220 0.0 8.0 0.00 0.00 0.00 14 1008.5
20260503181547 76 76 4.0 7.0 0.00 0.00 0.00 15 1008.8
20260503180056 76 113 4.0 7.0 0.00 0.00 0.00 14 1009.1
20260503174543 76 223 1.0 8.0 0.00 0.00 0.00 14 1009.5
20260503173115 76 173 4.0 9.0 0.00 0.00 0.00 15 1009.7
20260503171536 73 78 2.0 10.0 0.00 0.00 0.00 16 1010.0
20260503130104 45 148 0.0 5.0 0.00 0.00 0.00 40 1010.8
20260503081528 50 149 2.0 3.0 0.00 0.00 0.00 40 1010.8
20260503071515 52 149 3.0 5.0 0.00 0.00 0.00 28 1011.1
20260503054557 56 173 0.0 0.0 0.00 0.00 0.00 28 1010.5
20260503053057 57 173 0.0 0.0 0.00 0.00 0.00 29 1010.4
20260503051557 58 173 0.0 0.0 0.00 0.00 0.00 24 1010.4
20260503050058 59 173 0.0 0.0 0.00 0.00 0.00 22 1010.4
20260503044557 59 173 0.0 0.0 0.00 0.00 0.00 18 1010.4
20260503043100 60 173 0.0 1.0 0.00 0.00 0.00 28 1010.3
20260503041555 62 173 0.0 0.0 0.00 0.00 0.00 31 1010.3
20260503040053 63 173 0.0 2.0 0.00 0.00 0.00 21 1010.3
20260503034553 64 173 1.0 3.0 0.00 0.00 0.00 22 1010.1
20260503033052 65 173 0.0 0.0 0.00 0.00 0.00 17 1009.9
20260503031606 66 173 0.0 0.0 0.00 0.00 0.00 17 1009.8
20260503030051 68 173 0.0 1.0 0.00 0.00 0.00 21 1009.7
20260503024551 68 173 3.0 4.0 0.00 0.00 0.00 11 1009.6
20260503023054 70 173 1.0 3.0 0.00 0.00 0.00 11 1009.5
20260503021550 71 173 1.0 4.0 0.00 0.00 0.00 10 1009.3
20260503020057 72 173 3.0 5.0 0.00 0.00 0.00 10 1009.3
20260503014553 73 175 2.0 4.0 0.00 0.00 0.00 10 1009.3
20260503013048 74 182 0.0 2.0 0.00 0.00 0.00 14 1009.4
20260503011602 75 182 0.0 3.0 0.00 0.00 0.00 9 1009.4
20260503010047 76 186 1.0 4.0 0.00 0.00 0.00 10 1009.5
20260503004544 76 199 2.0 5.0 0.00 0.00 0.00 9 1009.6
20260503003042 77 201 2.0 8.0 0.00 0.00 0.00 9 1009.8
20260503001541 77 238 0.0 10.0 0.00 0.00 0.00 9 1010.0
20260503000051 78 112 4.0 7.0 0.00 0.00 0.00 8 1010.1
20260502234539 79 159 3.0 6.0 0.00 0.00 0.00 9 1010.1
20260502233037 79 167 2.0 8.0 0.00 0.00 0.00 8 1010.3